User: anonymous   Login
Location: Unspecified
(0.0000°N, 0.0000°E)
Time: 14:32:12
(UTC+00:00)
Language:

OAO 2 - Orbit

View from above orbital plane
View from above orbital plane
View from above satellite
View from above satellite

Ground track
Ground track

The orbit data is extracted from the following two-line orbital elements,

1 03597U 68110A   21109.74098459  .00000030  00000-0  13701-4 0  9998
2 03597  34.9926 136.8146 0006164 300.8649  59.1435 14.45879466760559
Epoch (UTC): 19 April 2021 17:47:01
Eccentricity: 0.0006164
inclination: 34.9926°
perigee height: 735 km
apogee height: 743 km
right ascension of ascending node: 136.8146°
argument of perigee: 300.8649°
revolutions per day: 14.45879466
mean anomaly at epoch: 59.1435°
orbit number at epoch: 76055

The dashed part of the orbit path shows where the satellite is in the earth's shadow,  

DLR